| time (UTC) | temp C | wind direction | speed KPH | gust KPH | rain 1hr cm | rain 24hr cm | rain mn cm | humidity % | barometer mb |
| 20260508071518 | 8 | 74 | 8.0 | 11.3 | 0.00 | 0.61 | 0.00 | 96 | 1013.2 |
| 20260508070532 | 8 | 75 | 8.0 | 12.9 | 0.00 | 0.61 | 0.00 | 96 | 1013.3 |
| 20260508065527 | 8 | 71 | 8.0 | 14.5 | 0.00 | 0.61 | 0.00 | 96 | 1013.5 |
| 20260508064520 | 8 | 84 | 6.4 | 12.9 | 0.00 | 0.61 | 0.00 | 96 | 1013.7 |
| 20260508063535 | 8 | 83 | 8.0 | 12.9 | 0.00 | 0.61 | 0.00 | 96 | 1013.7 |
| 20260508062529 | 7 | 70 | 6.4 | 11.3 | 0.00 | 0.61 | 0.00 | 96 | 1013.7 |
| 20260508061543 | 7 | 72 | 8.0 | 12.9 | 0.00 | 0.61 | 0.00 | 96 | 1013.6 |
| 20260508060519 | 7 | 71 | 6.4 | 9.7 | 0.00 | 0.61 | 0.00 | 96 | 1013.6 |
| 20260508055532 | 7 | 66 | 6.4 | 9.7 | 0.00 | 0.61 | 0.00 | 96 | 1013.6 |
| 20260508054525 | 7 | 76 | 3.2 | 4.8 | 0.00 | 0.61 | 0.00 | 96 | 1013.6 |
| 20260508053520 | 7 | 94 | 1.6 | 3.2 | 0.00 | 0.61 | 0.00 | 96 | 1013.5 |
| 20260508052534 | 7 | 94 | 3.2 | 4.8 | 0.00 | 0.61 | 0.00 | 96 | 1013.4 |
| 20260508051529 | 7 | 90 | 1.6 | 3.2 | 0.00 | 0.61 | 0.00 | 96 | 1013.2 |
| 20260508050524 | 7 | 110 | 1.6 | 3.2 | 0.00 | 0.61 | 0.00 | 96 | 1013.0 |
| 20260508045516 | 7 | 92 | 1.6 | 4.8 | 0.00 | 0.61 | 0.00 | 96 | 1012.7 |
| 20260508044532 | 7 | 68 | 6.4 | 9.7 | 0.00 | 0.61 | 0.00 | 95 | 1012.7 |
| 20260508043526 | 7 | 65 | 8.0 | 11.3 | 0.00 | 0.61 | 0.00 | 95 | 1012.6 |
| 20260508042521 | 7 | 77 | 3.2 | 4.8 | 0.00 | 0.61 | 0.00 | 95 | 1012.8 |
| 20260508041534 | 7 | 80 | 1.6 | 4.8 | 0.00 | 0.61 | 0.00 | 95 | 1012.7 |
| 20260508040530 | 7 | 95 | 3.2 | 4.8 | 0.00 | 0.61 | 0.00 | 95 | 1012.7 |
| 20260508035523 | 8 | 97 | 6.4 | 11.3 | 0.00 | 0.61 | 0.00 | 95 | 1012.7 |
| 20260508034517 | 7 | 108 | 6.4 | 11.3 | 0.00 | 0.61 | 0.00 | 96 | 1012.9 |
| 20260508033532 | 6 | 0.0 | 0.0 | 0.00 | 0.61 | 0.00 | 95 | 1012.9 | |
| 20260508032526 | 5 | 0.0 | 0.0 | 0.00 | 0.61 | 0.00 | 95 | 1013.0 | |
| 20260508031522 | 5 | 54 | 1.6 | 3.2 | 0.00 | 0.61 | 0.00 | 95 | 1012.6 |
| 20260508030535 | 5 | 59 | 0.0 | 3.2 | 0.00 | 0.61 | 0.00 | 95 | 1012.6 |
| 20260508025531 | 5 | 80 | 3.2 | 6.4 | 0.00 | 0.61 | 0.00 | 95 | 1012.7 |
| 20260508024524 | 5 | 68 | 9.7 | 12.9 | 0.00 | 0.61 | 0.00 | 95 | 1012.7 |
| 20260508023537 | 6 | 74 | 6.4 | 11.3 | 0.00 | 0.61 | 0.00 | 95 | 1012.8 |
| 20260508022533 | 5 | 85 | 4.8 | 6.4 | 0.00 | 0.61 | 0.00 | 95 | 1013.0 |
| 20260508021526 | 5 | 100 | 1.6 | 3.2 | 0.00 | 0.61 | 0.00 | 95 | 1013.2 |
| 20260508020520 | 6 | 113 | 1.6 | 3.2 | 0.00 | 0.61 | 0.00 | 95 | 1013.3 |
| 20260508015535 | 6 | 88 | 1.6 | 3.2 | 0.00 | 0.61 | 0.00 | 95 | 1013.2 |
| 20260508014529 | 5 | 0.0 | 0.0 | 0.00 | 0.61 | 0.00 | 95 | 1013.2 | |
| 20260508013522 | 6 | 72 | 1.6 | 4.8 | 0.00 | 0.61 | 0.00 | 95 | 1013.2 |
| 20260508012518 | 5 | 70 | 3.2 | 4.8 | 0.00 | 0.61 | 0.00 | 95 | 1013.2 |
| 20260508011533 | 5 | 76 | 0.0 | 3.2 | 0.00 | 0.61 | 0.00 | 95 | 1013.4 |
| 20260508010526 | 5 | 76 | 1.6 | 4.8 | 0.00 | 0.61 | 0.00 | 95 | 1013.5 |
| 20260508005521 | 5 | 107 | 0.0 | 1.6 | 0.00 | 0.61 | 0.00 | 94 | 1013.5 |
| 20260508004534 | 5 | 0.0 | 0.0 | 0.00 | 0.61 | 0.00 | 94 | 1013.6 | |
| 20260508003609 | 6 | 99 | 0.0 | 1.6 | 0.00 | 0.61 | 0.00 | 94 | 1013.8 |
| 20260508002523 | 6 | 0.0 | 0.0 | 0.00 | 0.61 | 0.00 | 94 | 1014.0 | |
| 20260508001539 | 6 | 0.0 | 0.0 | 0.00 | 0.61 | 0.00 | 94 | 1014.1 | |
| 20260508000532 | 6 | 0.0 | 0.0 | 0.00 | 0.61 | 0.00 | 94 | 1014.4 | |
| 20260507235548 | 6 | 0.0 | 0.0 | 0.00 | 0.61 | 0.00 | 94 | 1014.3 | |
| 20260507234521 | 6 | 0.0 | 0.0 | 0.00 | 0.61 | 0.00 | 94 | 1014.3 | |
| 20260507233556 | 6 | 71 | 1.6 | 4.8 | 0.00 | 0.61 | 0.00 | 94 | 1014.4 |
| 20260507232530 | 6 | 73 | 3.2 | 6.4 | 0.00 | 0.61 | 0.00 | 94 | 1014.4 |
| 20260507231524 | 6 | 70 | 6.4 | 9.7 | 0.00 | 0.61 | 0.00 | 94 | 1014.4 |
| 20260507230518 | 6 | 65 | 1.6 | 4.8 | 0.00 | 0.61 | 0.00 | 94 | 1014.7 |
| 20260507225558 | 5 | 0.0 | 0.0 | 0.00 | 0.61 | 0.00 | 93 | 1014.8 | |
| 20260507224527 | 6 | 0.0 | 0.0 | 0.00 | 0.61 | 0.00 | 93 | 1014.8 | |
| 20260507223521 | 6 | 0.0 | 0.0 | 0.00 | 0.61 | 0.00 | 93 | 1014.9 | |
| 20260507222536 | 6 | 0.0 | 0.0 | 0.00 | 0.61 | 0.00 | 93 | 1014.9 | |
| 20260507221529 | 6 | 66 | 3.2 | 6.4 | 0.00 | 0.61 | 0.00 | 93 | 1014.9 |
| 20260507220524 | 7 | 61 | 4.8 | 9.7 | 0.00 | 0.61 | 0.00 | 93 | 1014.9 |
| 20260507215518 | 7 | 77 | 6.4 | 9.7 | 0.00 | 0.61 | 0.61 | 93 | 1014.8 |
| 20260507214534 | 6 | 62 | 1.6 | 4.8 | 0.00 | 0.61 | 0.61 | 93 | 1015.0 |
| 20260507213527 | 7 | 67 | 8.0 | 12.9 | 0.00 | 0.61 | 0.61 | 93 | 1014.9 |
| 20260507212605 | 7 | 85 | 1.6 | 6.4 | 0.00 | 0.61 | 0.61 | 93 | 1014.9 |
| 20260507211517 | 7 | 67 | 3.2 | 4.8 | 0.00 | 0.61 | 0.61 | 93 | 1014.9 |
| 20260507210533 | 7 | 66 | 1.6 | 4.8 | 0.00 | 0.61 | 0.61 | 92 | 1014.8 |
| 20260507205526 | 7 | 91 | 1.6 | 1.6 | 0.00 | 0.61 | 0.61 | 92 | 1014.6 |
| 20260507204521 | 7 | 101 | 0.0 | 1.6 | 0.00 | 0.61 | 0.61 | 91 | 1014.5 |
| 20260507203535 | 7 | 0.0 | 0.0 | 0.00 | 0.61 | 0.61 | 91 | 1014.3 | |
| 20260507202529 | 8 | 99 | 1.6 | 1.6 | 0.00 | 0.61 | 0.61 | 91 | 1014.1 |
| 20260507201523 | 8 | 107 | 1.6 | 3.2 | 0.00 | 0.61 | 0.61 | 90 | 1013.9 |
| 20260507200518 | 8 | 124 | 1.6 | 3.2 | 0.00 | 0.61 | 0.61 | 89 | 1013.7 |
| 20260507195533 | 8 | 109 | 3.2 | 6.4 | 0.00 | 0.61 | 0.61 | 88 | 1013.4 |
| 20260507194529 | 8 | 103 | 3.2 | 6.4 | 0.00 | 0.61 | 0.61 | 88 | 1013.3 |
| 20260507193522 | 8 | 106 | 4.8 | 9.7 | 0.00 | 0.61 | 0.61 | 88 | 1013.0 |
| 20260507192516 | 9 | 115 | 4.8 | 6.4 | 0.00 | 0.61 | 0.61 | 87 | 1013.0 |
| 20260507191532 | 10 | 107 | 3.2 | 4.8 | 0.00 | 0.61 | 0.61 | 86 | 1012.9 |
| 20260507190525 | 10 | 105 | 4.8 | 9.7 | 0.00 | 0.61 | 0.61 | 85 | 1012.8 |
| 20260507185519 | 10 | 103 | 4.8 | 9.7 | 0.00 | 0.61 | 0.61 | 83 | 1012.6 |
| 20260507184534 | 11 | 106 | 6.4 | 11.3 | 0.00 | 0.61 | 0.61 | 81 | 1012.5 |
| 20260507183529 | 11 | 121 | 6.4 | 11.3 | 0.00 | 0.61 | 0.61 | 78 | 1012.5 |
| 20260507182522 | 11 | 113 | 6.4 | 12.9 | 0.00 | 0.61 | 0.61 | 80 | 1012.5 |
| 20260507181517 | 11 | 97 | 9.7 | 16.1 | 0.00 | 0.61 | 0.61 | 80 | 1012.4 |
| 20260507180554 | 11 | 106 | 6.4 | 14.5 | 0.00 | 0.61 | 0.61 | 80 | 1012.5 |
| 20260507175526 | 11 | 98 | 8.0 | 16.1 | 0.00 | 0.61 | 0.61 | 80 | 1012.6 |
| 20260507174521 | 11 | 100 | 6.4 | 12.9 | 0.00 | 0.61 | 0.61 | 81 | 1012.5 |
| 20260507173555 | 11 | 105 | 6.4 | 11.3 | 0.00 | 0.61 | 0.61 | 82 | 1012.6 |
| 20260507172529 | 11 | 115 | 4.8 | 9.7 | 0.00 | 0.61 | 0.61 | 82 | 1012.9 |
| 20260507171523 | 11 | 104 | 4.8 | 9.7 | 0.00 | 0.61 | 0.61 | 82 | 1012.8 |
| 20260507170519 | 11 | 101 | 4.8 | 12.9 | 0.00 | 0.61 | 0.61 | 82 | 1012.9 |
| 20260507165534 | 11 | 88 | 4.8 | 9.7 | 0.00 | 0.61 | 0.61 | 82 | 1012.9 |
| 20260507164526 | 10 | 105 | 4.8 | 9.7 | 0.00 | 0.61 | 0.61 | 82 | 1012.9 |
| 20260507163521 | 10 | 107 | 8.0 | 12.9 | 0.00 | 0.61 | 0.61 | 81 | 1013.1 |
| 20260507162534 | 10 | 92 | 6.4 | 11.3 | 0.00 | 0.61 | 0.61 | 83 | 1013.0 |
| 20260507161550 | 10 | 111 | 8.0 | 14.5 | 0.00 | 0.61 | 0.61 | 82 | 1012.8 |
| 20260507160522 | 10 | 109 | 8.0 | 14.5 | 0.00 | 0.61 | 0.61 | 83 | 1012.5 |
| 20260507155518 | 10 | 97 | 12.9 | 22.5 | 0.00 | 0.61 | 0.61 | 85 | 1012.4 |
| 20260507154531 | 10 | 103 | 11.3 | 16.1 | 0.00 | 0.61 | 0.61 | 87 | 1012.5 |
| 20260507153525 | 10 | 87 | 9.7 | 17.7 | 0.00 | 0.61 | 0.61 | 90 | 1012.5 |
| 20260507152519 | 9 | 74 | 11.3 | 17.7 | 0.03 | 0.61 | 0.61 | 90 | 1012.6 |
| 20260507151533 | 9 | 72 | 14.5 | 27.4 | 0.08 | 0.61 | 0.61 | 90 | 1012.4 |
| 20260507150527 | 9 | 75 | 12.9 | 25.7 | 0.13 | 0.61 | 0.61 | 90 | 1012.3 |
| 20260507145602 | 9 | 81 | 12.9 | 24.1 | 0.23 | 0.61 | 0.61 | 90 | 1012.4 |
| 20260507144535 | 9 | 71 | 16.1 | 29.0 | 0.48 | 0.61 | 0.61 | 91 | 1012.4 |
| 20260507143529 | 9 | 70 | 12.9 | 25.7 | 0.58 | 0.61 | 0.61 | 92 | 1012.7 |
| 20260507142523 | 9 | 68 | 19.3 | 25.7 | 0.56 | 0.58 | 0.58 | 92 | 1012.9 |
| 20260507141518 | 9 | 70 | 11.3 | 16.1 | 0.51 | 0.53 | 0.53 | 91 | 1013.4 |
| 20260507140525 | 9 | 70 | 4.8 | 6.4 | 0.46 | 0.48 | 0.48 | 90 | 1013.9 |
| 20260507135527 | 10 | 0 | 1.6 | 3.2 | 0.36 | 0.38 | 0.38 | 88 | 1013.9 |
| 20260507134540 | 10 | 352 | 0.0 | 3.2 | 0.10 | 0.13 | 0.13 | 87 | 1013.9 |
| 20260507133535 | 10 | 50 | 4.8 | 11.3 | 0.03 | 0.03 | 0.03 | 86 | 1013.7 |
| 20260507132529 | 10 | 74 | 9.7 | 14.5 | 0.03 | 0.03 | 0.03 | 86 | 1013.8 |
| 20260507131543 | 10 | 6 | 4.8 | 9.7 | 0.03 | 0.03 | 0.03 | 85 | 1013.8 |
| 20260507130518 | 10 | 326 | 6.4 | 17.7 | 0.03 | 0.03 | 0.03 | 86 | 1013.5 |
| 20260507125530 | 10 | 295 | 9.7 | 24.1 | 0.03 | 0.03 | 0.03 | 85 | 1013.2 |
| 20260507124526 | 10 | 276 | 14.5 | 24.1 | 0.03 | 0.03 | 0.03 | 82 | 1013.1 |
| 20260507123520 | 11 | 283 | 19.3 | 30.6 | 0.00 | 0.00 | 0.00 | 77 | 1013.0 |
| 20260507122535 | 13 | 272 | 20.9 | 38.6 | 0.00 | 0.00 | 0.00 | 74 | 1013.0 |
| 20260507121528 | 14 | 290 | 3.2 | 6.4 | 0.00 | 0.00 | 0.00 | 68 | 1013.0 |
| 20260507120523 | 15 | 225 | 1.6 | 6.4 | 0.00 | 0.00 | 0.00 | 68 | 1013.2 |
| 20260507115538 | 13 | 193 | 0.0 | 1.6 | 0.00 | 0.00 | 0.00 | 69 | 1013.3 |
| 20260507114552 | 13 | 208 | 3.2 | 6.4 | 0.00 | 0.00 | 0.00 | 72 | 1013.3 |
| 20260507113546 | 13 | 172 | 3.2 | 4.8 | 0.00 | 0.00 | 0.00 | 69 | 1013.5 |
| 20260507112520 | 13 | 117 | 4.8 | 11.3 | 0.00 | 0.00 | 0.00 | 68 | 1013.6 |
| 20260507111535 | 13 | 121 | 8.0 | 16.1 | 0.00 | 0.00 | 0.00 | 66 | 1013.6 |
| 20260507110529 | 13 | 109 | 11.3 | 17.7 | 0.00 | 0.00 | 0.00 | 66 | 1013.6 |
| 20260507105525 | 13 | 128 | 9.7 | 17.7 | 0.00 | 0.00 | 0.00 | 64 | 1013.7 |
| 20260507104517 | 14 | 126 | 9.7 | 16.1 | 0.00 | 0.00 | 0.00 | 65 | 1013.6 |
| 20260507103531 | 14 | 121 | 11.3 | 20.9 | 0.00 | 0.00 | 0.00 | 64 | 1013.7 |
| 20260507102547 | 14 | 115 | 12.9 | 22.5 | 0.00 | 0.00 | 0.00 | 64 | 1013.7 |
| 20260507101540 | 13 | 105 | 12.9 | 22.5 | 0.00 | 0.00 | 0.00 | 65 | 1013.7 |
| 20260507100534 | 13 | 104 | 8.0 | 17.7 | 0.00 | 0.00 | 0.00 | 67 | 1013.8 |
| 20260507095531 | 13 | 109 | 12.9 | 24.1 | 0.00 | 0.00 | 0.00 | 66 | 1013.8 |
| 20260507094523 | 12 | 136 | 9.7 | 17.7 | 0.00 | 0.00 | 0.00 | 69 | 1014.0 |
| 20260507093517 | 12 | 127 | 9.7 | 16.1 | 0.00 | 0.00 | 0.00 | 72 | 1014.0 |
| 20260507092531 | 12 | 119 | 9.7 | 17.7 | 0.00 | 0.00 | 0.00 | 73 | 1013.7 |
| 20260507091546 | 12 | 101 | 9.7 | 22.5 | 0.00 | 0.00 | 0.00 | 75 | 1013.3 |
| 20260507090519 | 11 | 96 | 11.3 | 20.9 | 0.00 | 0.00 | 0.00 | 76 | 1013.2 |
| 20260507085533 | 11 | 97 | 14.5 | 24.1 | 0.00 | 0.00 | 0.00 | 76 | 1013.1 |
| 20260507084528 | 11 | 87 | 14.5 | 27.4 | 0.00 | 0.00 | 0.00 | 78 | 1013.1 |
| 20260507083523 | 10 | 119 | 14.5 | 24.1 | 0.00 | 0.00 | 0.00 | 81 | 1013.0 |
| 20260507082517 | 10 | 122 | 17.7 | 27.4 | 0.00 | 0.00 | 0.00 | 82 | 1012.6 |
| 20260507081551 | 10 | 107 | 17.7 | 30.6 | 0.00 | 0.00 | 0.00 | 82 | 1012.4 |
| 20260507080524 | 10 | 98 | 16.1 | 27.4 | 0.00 | 0.00 | 0.00 | 78 | 1012.6 |
| 20260507075519 | 10 | 93 | 17.7 | 27.4 | 0.00 | 0.00 | 0.00 | 79 | 1012.9 |
| 20260507074554 | 11 | 117 | 12.9 | 22.5 | 0.00 | 0.00 | 0.00 | 78 | 1013.1 |
| 20260507073527 | 11 | 113 | 11.3 | 16.1 | 0.00 | 0.00 | 0.00 | 75 | 1013.3 |
| 20260507072603 | 11 | 109 | 11.3 | 20.9 | 0.00 | 0.00 | 0.00 | 74 | 1013.3 |